SAUDISAT 1C (SO-50)

Last updated on Thu Oct 30 2025 00:03:10 GMT+0000 (Coordinated Universal Time)

1 27607U 02058C 25301.87172317 .00001778 00000+0 23221-3 0 9999 2 27607 64.5504 124.2442 0069324 304.8872 54.5730 14.82139647230164
UTC large
Height (km)
Speed (km/s)
/
Latitude / Longitude
Inclination (degrees)
Orbital Period (minutes)
Azimuth
Elevation
Range (km)
Doppler Factor

Next 0 passes for location: London (51.5072 / 0.1276)

Sorry there are no passes over London.